ATLAS 75E DEB

Satellite information

Favourite Embed

Satellite Type and Status

DEBRISIN ORBIT

Key statistics

Satellite ATLAS 75E DEB at a glance.

Uptime

15335

Days in orbit

Revolutions

≈ 3.9

Per day

Orbit

HEO

HEO

Inclination

65.3

Latest

Satellite identification and parameters

Extended collection of information and parameters for ATLAS 75E DEB.

Object identification

Identified? True

Debris? True

Object name: ATLAS 75E DEB

International designator: 1983-072C

Object number (NORAD): 25842

Object ID (CCSDS): 25842

Country: UNITED STATES OF AMERICA (US)

Current information (Y/N): Y

RCS size: SMALL

Orbital parameters

Period: 367.428 minutes

Inclination: 65.3349 deg

SMA: 16993.188 km

Apoapsis: 19461.766 km

Periapsis: 1768.34 km

RAAN: 256.6525 deg

Eccentricy: 0.5206035

Argument of periapsis: 110.0333 deg

Mean anomaly: 354.4956 deg

Mean motion: 3.91913728 rev/day

Mean motion (dot): 0.00000018 rev/day2

B* drag term: 0.0 1/REarth

Two-line elements (TLE)

Creation date: July 5, 2025, 5:45 p.m.

Reference frame: TEME

Reference center: EARTH

Epoch: July 5, 2025, 6:57 a.m. UTC

TLE line 0: 0 ATLAS 75E DEB

TLE line 1: 1 25842U 83072C 25186.28977520 .00000018 00000-0 00000-0 0 9992

TLE line 2: 2 25842 65.3349 256.6525 5206035 110.0333 354.4956 3.91913728 61901

Live tracking on map

Real-time ground track for satellite ATLAS 75E DEB.

In-orbit conjunctions

A list of the most updated potential collisions computed for object ATLAS 75E DEB.

Target Orbit TCA Probability of collision Miss distance Type
COSMOS 2179 (GLONASS) MEO 2024-10-15 02:55:29 TBA 3658.0 (m) PAYLOAD

Associated space launch

First generation GPS satellite

ATLAS 75E DEB was lifted into orbit during the mission ‘Atlas E/SGS-2 | GPS 8’, on board a Atlas E/SGS-2 space rocket.

The launch took place on July 14, 1983, 10:21 a.m. from Space Launch Complex 3W.

For more information about the launch, click the button.

Launch to space Atlas E/SGS-2 | GPS 8
Atlas E/SGS-2 | GPS 8

Agency: N/A

Status: Launch Successful

Launch date: July 14, 1983, 10:21 a.m. UTC

Rocket: Atlas E/SGS-2

Launch pad: Space Launch Complex 3W

Location: Vandenberg SFB, CA, USA

...

Latest news about this satellite

There are no fresh news available about this satellite. Check back as we update our databases every day.


Newsletter sign-up

Weekly statistics, charts and insights to help you stay on top of the space industry.